KB7STN Weather Reports


time (UTC)temp
F
wind
direction
speed
knots
gust
knots
rain 1hr
in
rain 24hr
in
rain mn
in
humidity
%
barometer
mb
20240222111443 33 9 0.0 0.0 0.00 0.07 0.05 92 1020.4
20240222110943 33 9 0.0 0.0 0.00 0.07 0.05 92 1020.4
20240222110443 33 9 0.0 0.0 0.00 0.07 0.05 92 1020.3
20240222105943 33 9 0.0 1.7 0.00 0.07 0.05 92 1020.4
20240222105443 33 9 0.0 0.9 0.00 0.07 0.05 92 1020.3
20240222104943 33 9 0.0 0.9 0.00 0.07 0.05 92 1020.2
20240222104443 33 9 0.0 0.9 0.00 0.07 0.05 93 1020.3
20240222103944 33 9 0.0 1.7 0.00 0.07 0.05 93 1020.3
20240222103444 33 9 0.0 0.0 0.00 0.07 0.05 93 1020.2
20240222102943 33 9 0.0 0.0 0.00 0.07 0.05 93 1020.2
20240222102444 33 9 0.0 0.0 0.00 0.07 0.05 93 1020.3
20240222101944 33 9 0.0 0.0 0.00 0.07 0.05 93 1020.3
20240222101444 33 9 0.0 0.9 0.00 0.07 0.05 93 1020.3
20240222100944 33 9 0.0 0.9 0.00 0.07 0.05 93 1020.3
20240222100444 32 9 0.0 0.9 0.00 0.07 0.05 93 1020.3
20240222095944 32 9 0.0 0.9 0.00 0.07 0.05 93 1020.4
20240222095444 32 9 0.0 0.9 0.00 0.07 0.05 93 1020.3
20240222094944 32 9 0.0 0.0 0.00 0.07 0.05 93 1020.3
20240222094444 32 9 0.0 0.0 0.00 0.07 0.05 93 1020.2
20240222093944 32 9 0.0 0.0 0.00 0.07 0.05 93 1020.2
20240222093444 32 9 0.0 0.0 0.00 0.07 0.05 93 1020.1
20240222092944 32 9 0.0 0.0 0.00 0.07 0.05 93 1020.1
20240222092444 32 9 0.0 0.0 0.00 0.07 0.05 93 1020.0
20240222091944 31 9 0.0 0.0 0.00 0.07 0.05 93 1020.0
20240222091444 31 9 0.0 0.0 0.00 0.07 0.05 92 1019.9
20240222090944 31 9 0.0 0.0 0.00 0.07 0.05 92 1019.9
20240222090444 31 9 0.0 0.0 0.00 0.07 0.05 92 1019.8
20240222085944 31 9 0.0 0.0 0.00 0.07 0.05 92 1019.8
20240222085444 31 9 0.0 0.0 0.00 0.07 0.05 92 1019.7
20240222084944 31 9 0.0 0.0 0.00 0.07 0.05 92 1019.6
20240222084444 31 9 0.0 0.0 0.00 0.07 0.05 92 1019.6
20240222083944 32 9 0.0 0.0 0.00 0.07 0.05 92 1019.6
20240222083444 32 9 0.0 0.0 0.00 0.07 0.05 92 1019.6
20240222082944 31 9 0.0 0.9 0.00 0.07 0.05 92 1019.7
20240222082444 32 9 0.0 0.9 0.00 0.07 0.05 92 1019.6
20240222081944 32 9 0.0 0.9 0.00 0.07 0.05 92 1019.6
20240222081444 32 9 0.0 0.9 0.01 0.07 0.05 92 1019.6
20240222080944 32 9 0.0 0.0 0.01 0.07 0.05 92 1019.5
20240222080444 32 9 0.0 0.0 0.01 0.07 0.05 92 1019.6
20240222075944 32 9 0.0 0.0 0.01 0.07 0.05 92 1019.7
20240222075444 32 9 0.0 0.0 0.01 0.07 0.05 92 1019.7
20240222074944 32 9 0.0 0.0 0.01 0.09 0.05 91 1019.6
20240222074444 32 9 0.0 0.0 0.01 0.09 0.05 91 1019.6
20240222073944 32 9 0.0 0.0 0.01 0.09 0.05 91 1019.7
20240222073444 32 9 0.0 0.9 0.01 0.09 0.05 91 1019.7
20240222072944 33 9 0.9 1.7 0.01 0.09 0.05 91 1019.6
20240222072444 33 9 0.9 2.6 0.01 0.09 0.05 91 1019.6
20240222071944 33 9 0.9 3.5 0.01 0.09 0.05 91 1019.5
20240222071444 33 9 0.0 1.7 0.00 0.08 0.04 91 1019.4
20240222070944 33 9 0.0 0.0 0.00 0.08 0.04 91 1019.2
20240222070444 33 9 0.0 0.9 0.00 0.08 0.04 90 1019.1
20240222065944 33 9 0.0 1.7 0.00 0.08 0.04 90 1019.2
20240222065444 33 9 0.0 1.7 0.00 0.08 0.04 90 1019.1
20240222064944 34 9 0.0 1.7 0.00 0.08 0.04 90 1018.9
20240222064444 34 9 0.0 0.0 0.00 0.08 0.04 90 1019.0
20240222063944 34 9 0.0 0.0 0.00 0.08 0.04 90 1018.9
20240222063444 34 9 0.0 0.0 0.00 0.08 0.04 90 1018.9
20240222062944 34 9 0.0 0.0 0.00 0.08 0.04 89 1018.7
20240222062444 34 9 0.0 1.7 0.00 0.08 0.04 89 1018.8
20240222061944 34 9 0.0 0.9 0.00 0.08 0.04 89 1018.7
20240222061444 35 9 0.0 0.9 0.00 0.08 0.04 89 1018.6
20240222060944 35 9 1.7 3.5 0.00 0.08 0.04 89 1018.6
20240222060444 35 9 1.7 5.2 0.00 0.08 0.04 89 1018.4
20240222055944 35 9 0.9 7.8 0.00 0.08 0.04 89 1018.3
20240222055444 35 11 0.0 0.0 0.00 0.08 0.04 89 1018.1
20240222054944 35 11 0.0 0.0 0.00 0.08 0.04 89 1018.0
20240222054444 35 11 0.0 0.0 0.00 0.08 0.04 88 1017.7
20240222053944 35 11 0.0 0.0 0.00 0.08 0.04 88 1017.8
20240222053444 35 11 0.0 0.0 0.00 0.08 0.04 89 1017.7
20240222052944 35 11 0.0 0.0 0.00 0.08 0.04 89 1017.7
20240222052444 35 11 0.0 0.0 0.00 0.08 0.04 89 1017.7
20240222051944 35 11 0.0 0.0 0.00 0.08 0.04 89 1017.6
20240222051444 35 11 0.0 0.9 0.00 0.08 0.04 89 1017.6
20240222050944 35 11 0.0 0.0 0.00 0.08 0.04 89 1017.5
20240222050444 35 11 0.0 0.0 0.00 0.08 0.04 89 1017.6
20240222045944 35 11 0.0 0.0 0.00 0.08 0.04 89 1017.6
20240222045444 35 11 0.0 0.0 0.00 0.08 0.04 90 1017.5
20240222044944 35 11 0.0 0.9 0.00 0.08 0.04 90 1017.5
20240222044444 35 11 0.0 0.0 0.00 0.08 0.04 90 1017.5
20240222043944 34 11 0.0 0.0 0.00 0.08 0.04 90 1017.5
20240222043444 34 11 0.0 0.0 0.00 0.08 0.04 90 1017.4
20240222042944 34 11 0.0 0.0 0.00 0.08 0.04 90 1017.4
20240222042444 34 11 0.0 0.0 0.00 0.08 0.04 90 1017.3
20240222041944 34 11 0.0 0.0 0.00 0.08 0.04 91 1017.3
20240222041444 34 11 0.0 0.0 0.00 0.08 0.04 91 1017.2
20240222040944 34 11 0.0 0.0 0.00 0.08 0.04 91 1017.2
20240222040444 34 11 0.0 0.0 0.00 0.08 0.04 91 1017.3
20240222035944 34 11 0.0 0.0 0.00 0.08 0.04 91 1017.3
20240222035444 34 11 0.0 0.0 0.00 0.08 0.04 91 1017.2
20240222034944 34 11 0.0 0.0 0.00 0.11 0.04 91 1017.0
20240222034444 34 11 0.0 0.0 0.00 0.11 0.04 91 1017.1
20240222033944 33 11 0.0 0.0 0.00 0.11 0.04 91 1017.1
20240222033444 33 11 0.0 0.0 0.00 0.11 0.04 91 1017.0
20240222032944 33 11 0.0 0.0 0.00 0.11 0.04 90 1017.0
20240222032444 33 11 0.0 0.0 0.00 0.11 0.04 90 1017.0
20240222031944 33 11 0.0 0.0 0.00 0.11 0.04 90 1017.0
20240222031444 34 11 0.0 0.0 0.00 0.11 0.04 90 1016.9
20240222030944 34 11 0.0 0.0 0.00 0.11 0.04 90 1016.8
20240222030444 34 11 0.0 0.0 0.00 0.11 0.04 90 1016.7
20240222025944 34 11 0.0 0.0 0.00 0.11 0.04 90 1016.7
20240222025444 34 11 0.0 0.0 0.00 0.11 0.04 90 1016.6
20240222024944 34 11 0.0 0.9 0.00 0.18 0.04 90 1016.6
20240222024444 34 11 0.0 0.0 0.00 0.18 0.04 90 1016.6
20240222023944 34 11 0.0 0.0 0.00 0.18 0.04 90 1016.4
20240222023444 34 11 0.0 0.0 0.00 0.18 0.04 90 1016.4
20240222022944 34 11 0.0 0.9 0.00 0.18 0.04 89 1016.3
20240222022444 34 11 0.0 0.9 0.00 0.18 0.04 89 1016.2
20240222021944 34 11 0.0 0.0 0.00 0.18 0.04 89 1016.2
20240222021444 35 11 0.0 0.0 0.00 0.18 0.04 89 1016.0
20240222020944 35 11 0.0 1.7 0.00 0.18 0.04 89 1016.0
20240222020444 35 11 0.0 0.0 0.00 0.18 0.04 89 1015.9
20240222015944 35 11 0.0 0.0 0.00 0.18 0.04 88 1015.8
20240222015444 35 11 0.0 0.9 0.00 0.18 0.04 88 1015.7
20240222014944 35 11 0.0 0.9 0.00 0.21 0.04 88 1015.6
20240222014444 35 11 0.0 0.0 0.00 0.21 0.04 88 1015.6
20240222013944 35 11 0.0 0.0 0.00 0.21 0.04 88 1015.5
20240222013444 36 11 0.0 0.0 0.00 0.21 0.04 88 1015.4
20240222012944 36 11 0.0 0.9 0.00 0.21 0.04 88 1015.2
20240222012444 36 11 0.0 0.0 0.00 0.21 0.04 88 1015.2
20240222011944 36 11 0.0 0.0 0.00 0.21 0.04 88 1015.2
20240222011444 36 11 0.0 0.0 0.00 0.21 0.04 88 1015.2
20240222010944 36 11 0.0 0.9 0.00 0.21 0.04 89 1015.2
20240222010444 36 11 0.0 1.7 0.00 0.21 0.04 89 1015.1
20240222005944 36 11 0.0 2.6 0.00 0.21 0.04 89 1014.9
20240222005444 37 11 0.9 2.6 0.00 0.21 0.04 89 1014.8
20240222004944 37 11 0.9 4.3 0.00 0.24 0.04 89 1014.6
20240222004444 37 11 0.0 2.6 0.00 0.24 0.04 90 1014.5
20240222003944 37 11 0.0 1.7 0.00 0.24 0.04 90 1014.4
20240222003445 37 11 0.0 1.7 0.00 0.24 0.04 90 1014.3
20240222002945 37 11 0.0 2.6 0.00 0.24 0.04 91 1014.2
20240222002444 37 11 0.0 2.6 0.00 0.24 0.04 91 1014.0
20240222001945 37 11 0.0 1.7 0.00 0.24 0.04 91 1013.9
20240222001445 37 11 0.9 2.6 0.00 0.24 0.04 91 1013.9
20240222000944 37 11 0.9 1.7 0.00 0.24 0.04 91 1013.8
20240222000445 37 11 0.0 3.5 0.00 0.24 0.04 91 1013.7
20240221235945 37 11 0.0 1.7 0.00 0.24 0.04 91 1013.5
20240221235445 37 11 0.0 1.7 0.00 0.24 0.04 91 1013.6
20240221234945 37 11 0.0 1.7 0.00 0.24 0.04 91 1013.5
20240221234445 37 11 0.0 1.7 0.00 0.24 0.04 91 1013.3
20240221233945 37 11 0.0 1.7 0.00 0.24 0.04 91 1013.2
20240221233445 37 11 0.9 2.6 0.00 0.24 0.04 91 1013.1
20240221232945 37 11 0.0 3.5 0.00 0.24 0.04 91 1013.0
20240221232445 37 11 0.0 0.0 0.00 0.24 0.04 92 1013.1
20240221231945 37 11 0.0 0.0 0.00 0.24 0.04 91 1013.0
20240221231445 37 11 0.0 0.0 0.00 0.24 0.04 91 1012.9
20240221230945 37 11 0.0 1.7 0.00 0.24 0.04 91 1012.7
20240221230445 37 11 0.9 1.7 0.00 0.24 0.04 91 1012.6
20240221225945 37 11 0.9 1.7 0.00 0.24 0.04 91 1012.5
20240221225445 37 11 0.9 3.5 0.01 0.24 0.04 91 1012.4
20240221224945 37 11 0.9 2.6 0.01 0.24 0.04 91 1012.4
20240221224445 37 11 1.7 2.6 0.01 0.24 0.04 90 1012.4
20240221223945 37 11 1.7 3.5 0.01 0.24 0.04 90 1012.2
20240221223445 37 11 1.7 4.3 0.01 0.24 0.04 90 1012.2
20240221222945 37 11 0.9 3.5 0.01 0.24 0.04 90 1012.1
20240221222445 37 11 0.9 2.6 0.01 0.24 0.04 90 1011.9
20240221221945 37 11 0.9 2.6 0.01 0.24 0.04 90 1011.8
20240221221445 37 11 0.9 3.5 0.01 0.24 0.04 90 1011.8
20240221220945 37 11 0.9 2.6 0.01 0.24 0.04 90 1011.7
20240221220445 37 11 0.9 2.6 0.01 0.24 0.04 90 1011.5
20240221215945 37 11 0.9 3.5 0.01 0.24 0.04 90 1011.3
20240221215445 38 11 1.7 5.2 0.00 0.23 0.03 89 1011.3
20240221214945 38 11 1.7 5.2 0.00 0.23 0.03 89 1011.3
20240221214445 38 10 0.9 3.5 0.00 0.23 0.03 89 1011.2
20240221213945 39 10 1.7 1.7 0.00 0.23 0.03 89 1011.0
20240221213445 39 10 1.7 3.5 0.00 0.23 0.03 89 1011.0
20240221212945 39 10 1.7 4.3 0.00 0.23 0.03 89 1010.9
20240221212445 39 9 1.7 5.2 0.00 0.23 0.03 89 1010.8
20240221211945 40 5 1.7 2.6 0.01 0.23 0.03 88 1010.7
20240221211445 40 5 1.7 5.2 0.01 0.23 0.03 88 1010.5
20240221210945 40 5 1.7 6.1 0.03 0.23 0.03 88 1010.3
20240221210445 41 5 1.7 4.3 0.03 0.23 0.03 89 1010.3
20240221205945 41 5 0.9 3.5 0.03 0.23 0.03 89 1010.2
20240221205445 41 5 0.9 3.5 0.03 0.23 0.03 89 1010.0
20240221204945 41 5 1.7 3.5 0.03 0.23 0.03 88 1010.1
20240221204445 41 5 1.7 4.3 0.03 0.23 0.03 88 1010.0
20240221203945 41 5 0.9 4.3 0.03 0.23 0.03 87 1010.0
20240221203445 41 5 0.9 3.5 0.03 0.23 0.03 86 1010.1
20240221202945 41 5 0.0 1.7 0.03 0.23 0.03 85 1010.1
20240221202445 41 5 0.0 0.0 0.03 0.23 0.03 84 1010.0
20240221201945 41 5 0.9 0.9 0.02 0.22 0.02 83 1010.1
20240221201445 41 5 0.9 2.6 0.02 0.22 0.02 82 1010.1
20240221200945 42 5 0.0 4.3 0.00 0.20 0.00 83 1010.0
20240221200445 42 10 0.0 1.7 0.00 0.20 0.00 82 1009.9
20240221195945 42 10 0.9 0.0 0.00 0.20 0.00 81 1009.9
20240221195445 42 10 0.9 3.5 0.00 0.20 0.00 80 1009.9
20240221194945 43 10 0.0 2.6 0.00 0.20 0.00 80 1009.8
20240221194445 43 11 0.9 2.6 0.00 0.20 0.00 80 1009.7
20240221193945 43 11 1.7 3.5 0.00 0.20 0.00 81 1009.7
20240221193445 43 11 2.6 5.2 0.00 0.20 0.00 81 1009.6
20240221192945 43 9 2.6 7.0 0.00 0.20 0.00 80 1009.6
20240221192445 44 0 1.7 6.1 0.00 0.20 0.00 79 1009.6
20240221191945 45 329 1.7 4.3 0.00 0.20 0.00 78 1009.6
20240221191445 45 323 0.9 6.1 0.00 0.20 0.00 76 1009.6
20240221190945 45 229 0.9 1.7 0.00 0.20 0.00 72 1009.5
20240221190445 45 229 0.9 5.2 0.00 0.20 0.00 72 1009.4
20240221185945 45 184 1.7 7.0 0.00 0.20 0.20 74 1009.5
20240221185445 44 217 1.7 4.3 0.00 0.20 0.20 74 1009.4
20240221184945 44 218 1.7 3.5 0.00 0.20 0.20 74 1009.4
20240221184445 44 225 1.7 7.0 0.00 0.20 0.20 75 1009.4
20240221183945 44 185 1.7 6.1 0.00 0.20 0.20 75 1009.3
20240221183445 44 182 2.6 5.2 0.00 0.20 0.20 76 1009.3
20240221182945 44 214 1.7 5.2 0.00 0.20 0.20 76 1009.2
20240221182445 44 182 2.6 4.3 0.00 0.20 0.20 76 1009.2
20240221181945 44 204 2.6 7.0 0.00 0.20 0.20 77 1009.3
20240221181445 44 282 2.6 7.0 0.00 0.20 0.20 77 1009.2
20240221180945 43 224 3.5 6.1 0.00 0.20 0.20 79 1009.2
20240221180445 43 153 3.5 11.3 0.00 0.20 0.20 77 1009.3
20240221175945 43 146 2.6 4.3 0.01 0.20 0.20 78 1009.2
20240221175445 43 167 3.5 7.8 0.01 0.20 0.20 78 1009.1
20240221174945 44 248 2.6 9.6 0.01 0.20 0.20 77 1009.3
20240221174445 43 177 3.5 6.1 0.01 0.20 0.20 78 1009.1
20240221173945 43 181 3.5 8.7 0.01 0.20 0.20 78 1009.0
20240221173445 43 183 3.5 7.8 0.01 0.20 0.20 79 1009.0
20240221172945 43 173 3.5 9.6 0.01 0.20 0.20 79 1009.0
20240221172445 43 166 3.5 7.8 0.01 0.20 0.20 80 1008.9
20240221171945 43 177 3.5 7.8 0.01 0.20 0.20 81 1008.9
20240221171445 42 168 3.5 8.7 0.01 0.20 0.20 82 1008.8
20240221170945 42 179 3.5 8.7 0.01 0.20 0.20 82 1008.7
20240221170445 42 188 3.5 7.8 0.01 0.20 0.20 82 1008.9
20240221165945 42 171 3.5 6.1 0.00 0.19 0.19 82 1008.8
20240221165445 42 175 3.5 9.6 0.00 0.19 0.19 82 1008.6
20240221164945 41 180 3.5 7.8 0.00 0.19 0.19 83 1008.6
20240221164445 41 175 3.5 8.7 0.00 0.19 0.19 83 1008.7
20240221163945 41 169 2.6 6.1 0.00 0.19 0.19 83 1008.7
20240221163445 41 181 2.6 6.1 0.00 0.19 0.19 82 1008.7
20240221162945 41 174 3.5 9.6 0.00 0.19 0.19 81 1008.7
20240221162446 41 174 3.5 7.0 0.00 0.19 0.19 81 1008.6
20240221161945 41 188 4.3 7.8 0.00 0.19 0.19 80 1008.7
20240221161445 41 183 3.5 8.7 0.00 0.19 0.19 81 1008.7
20240221160945 41 176 3.5 10.4 0.00 0.19 0.19 80 1008.6
20240221160445 41 165 3.5 7.0 0.00 0.19 0.19 81 1008.5
20240221155945 41 184 3.5 7.0 0.00 0.19 0.19 81 1008.6
20240221155445 41 182 4.3 9.6 0.00 0.19 0.19 81 1008.7
20240221154945 41 175 4.3 7.0 0.00 0.19 0.19 81 1008.7
20240221154445 41 177 4.3 7.8 0.00 0.19 0.19 81 1008.7
20240221153945 41 190 4.3 8.7 0.00 0.19 0.19 81 1008.6
20240221153445 41 192 3.5 11.3 0.00 0.19 0.19 82 1008.5
20240221152945 40 175 2.6 6.1 0.00 0.19 0.19 82 1008.6
20240221152445 40 173 1.7 5.2 0.00 0.19 0.19 82 1008.6
20240221151945 40 184 2.6 7.8 0.00 0.19 0.19 82 1008.5
20240221151445 40 185 3.5 6.1 0.00 0.19 0.19 82 1008.4
20240221150945 40 187 3.5 7.0 0.00 0.19 0.19 82 1008.1
20240221150445 40 180 3.5 6.1 0.00 0.19 0.19 82 1008.3
20240221145945 40 209 3.5 9.6 0.00 0.19 0.19 82 1008.6
20240221145445 40 188 3.5 8.7 0.00 0.19 0.19 82 1008.7
20240221144945 40 178 3.5 7.0 0.00 0.19 0.19 82 1008.7
20240221144445 40 185 2.6 6.1 0.00 0.19 0.19 82 1008.7
20240221143945 40 184 3.5 4.3 0.00 0.19 0.19 81 1008.7
20240221143446 40 185 3.5 7.8 0.00 0.19 0.19 81 1008.7
20240221142946 40 171 3.5 8.7 0.00 0.19 0.19 80 1008.9
20240221142445 41 189 3.5 7.8 0.00 0.19 0.19 80 1008.7
20240221141946 41 165 3.5 9.6 0.00 0.19 0.19 80 1008.8
20240221141446 41 162 2.6 8.7 0.00 0.19 0.19 79 1008.8
20240221140946 41 178 1.7 7.0 0.00 0.19 0.19 79 1008.6
20240221140446 41 151 2.6 5.2 0.00 0.19 0.19 79 1008.6
20240221135946 41 178 3.5 7.8 0.00 0.19 0.19 79 1008.7
20240221135446 41 173 3.5 7.8 0.00 0.19 0.19 79 1008.6
20240221134946 41 178 3.5 9.6 0.00 0.19 0.19 79 1008.5
20240221134446 41 192 2.6 6.1 0.00 0.19 0.19 79 1008.6
20240221133946 41 212 2.6 9.6 0.00 0.19 0.19 79 1008.8
20240221133446 41 223 2.6 8.7 0.00 0.19 0.19 79 1008.8
20240221132946 41 184 2.6 7.0 0.00 0.19 0.19 78 1008.7
20240221132446 41 210 2.6 6.1 0.00 0.19 0.19 79 1008.9
20240221131946 41 178 2.6 3.5 0.00 0.19 0.19 79 1008.9
20240221131446 41 176 3.5 8.7 0.01 0.19 0.19 79 1008.9
20240221130946 41 159 2.6 6.1 0.01 0.19 0.19 79 1009.0
20240221130446 41 174 3.5 10.4 0.01 0.19 0.19 79 1009.0
20240221125946 41 161 3.5 7.0 0.01 0.19 0.19 79 1008.9
20240221125446 41 182 3.5 10.4 0.01 0.19 0.19 80 1009.0
20240221124946 41 166 3.5 12.2 0.01 0.19 0.19 80 1008.9
20240221124446 41 236 3.5 9.6 0.01 0.19 0.19 80 1008.8
20240221123946 40 196 3.5 7.0 0.01 0.19 0.19 81 1008.9
20240221123446 40 194 2.6 7.8 0.01 0.19 0.19 81 1008.9
20240221122946 40 166 2.6 7.8 0.01 0.19 0.19 81 1008.8
20240221122446 41 163 3.5 7.8 0.01 0.19 0.19 81 1008.9
20240221121946 41 172 3.5 7.0 0.01 0.19 0.19 81 1008.9
20240221121446 41 203 3.5 7.8 0.00 0.18 0.18 81 1008.8
20240221120946 41 163 2.6 6.1 0.00 0.18 0.18 81 1008.9
20240221120446 41 215 2.6 7.0 0.00 0.18 0.18 81 1009.0
20240221115946 41 190 3.5 10.4 0.00 0.18 0.18 81 1008.9
20240221115446 41 161 3.5 7.0 0.00 0.18 0.18 80 1008.9
20240221114946 41 148 3.5 9.6 0.00 0.18 0.18 80 1009.0
20240221114446 41 137 3.5 8.7 0.00 0.18 0.18 81 1008.9
20240221113946 40 171 1.7 10.4 0.00 0.18 0.18 81 1008.9
20240221113446 40 173 2.6 4.3 0.00 0.18 0.18 81 1009.0
20240221112946 41 181 2.6 6.1 0.00 0.18 0.18 81 1009.0
20240221112446 41 195 2.6 5.2 0.00 0.18 0.18 81 1009.2
20240221111946 41 159 3.5 7.8 0.00 0.18 0.18 81 1009.3